STARLINK-35690

Satellite information

Favourite Embed

Satellite Type and Status

PAYLOADIN ORBIT

Key statistics

Satellite STARLINK-35690 at a glance.

Uptime

29

Days in orbit

Revolutions

≈ 15.4

Per day

Orbit

LEO

Low Earth Orbit

Inclination

53.2

Latest

Satellite identification and parameters

Extended collection of information and parameters for STARLINK-35690.

Object identification

Identified? True

Debris? False

Object name: STARLINK-35690

International designator: 2025-257D

Object number (NORAD): 66383

Object ID (CCSDS): 66383

Country: UNITED STATES OF AMERICA (US)

Current information (Y/N): Y

Orbital parameters

Period: 93.533 minutes

Inclination: 53.1611 deg

SMA: 6825.552 km

Apoapsis: 448.329 km

Periapsis: 446.505 km

RAAN: 293.5587 deg

Eccentricy: 0.00013362

Argument of periapsis: 79.1423 deg

Mean anomaly: 192.4006 deg

Mean motion: 15.39558062 rev/day

Mean motion (dot): 0.00030677 rev/day2

B* drag term: 0.00077538501 1/REarth

Two-line elements (TLE)

Creation date: Dec. 6, 2025, 5:59 p.m.

Reference frame: TEME

Reference center: EARTH

Epoch: Dec. 6, 2025, 2 p.m. UTC

TLE line 0: 0 STARLINK-35690

TLE line 1: 1 66383U 25257D 25340.58335648 .00030677 00000-0 77539-3 0 9990

TLE line 2: 2 66383 53.1611 293.5587 0001336 79.1423 192.4006 15.39558062 5509

Live tracking on map

Real-time ground track for satellite STARLINK-35690.

In-orbit conjunctions

There are no conjunctions computed for STARLINK-35690, at the moment. Check back to stay up to date, as we update our databases every day.

Go to all conjunctions

Associated space launch

3 Chinese satellites reported to be for "orbital technological testing" purposes. Actual usage not known.

STARLINK-35690 was lifted into orbit during the mission ‘Long March 11 | Shiyan 32 01-03’, on board a Long March 11 space rocket.

The launch took place on Nov. 8, 2025, 9:01 p.m. from Oriental Spaceport mobile launch ship.

For more information about the launch, click the button.

Launch to space Long March 11 | Shiyan 32 01-03
Long March 11 | Shiyan 32 01-03

Agency: N/A

Status: Launch Successful

Launch date: Nov. 8, 2025, 9:01 p.m. UTC

Rocket: Long March 11

Launch pad: Oriental Spaceport mobile launch ship

Location: Sea Launch

...

Latest news about this satellite

News about space launch
China breaks annual launch record with VLEO Chutian and Shiyan technology test launches

China conducted a pair of solid rocket launches late Saturday, seeing the country surpass its previous record for orbital launch attempts in a calendar year. The post China breaks annual launch record with VLEO Chutian and Shiyan technology test launches...


Newsletter sign-up

Weekly statistics, charts and insights to help you stay on top of the space industry.